Regional Weather Roundup
Issued by NWS

Home | Current Version | Previous Version | Graphics & Text | Print | Product List | Glossary On
Versions: 1 2 3 4 5 6 7 8 9 10 11 12 13 14 15 16 17 18 19 20 21 22 23 24 25 26 27 28 29 30 31 32 33 34 35 36 37 38 39 40 41 42 43 44 45 46 47 48
000
ASUS45 KCYS 302210
RWRWY

WYOMING REGIONAL WEATHER ROUNDUP
NATIONAL WEATHER SERVICE CHEYENNE WY
400 PM MDT TUE JUN 30 2015

NOTE:  "FAIR" INDICATES FEW OR NO CLOUDS BELOW 12,000 FEET
WITH NO SIGNIFICANT WEATHER AND/OR OBSTRUCTIONS TO VISIBILITY.

WYZ001-302300-
YELLOWSTONE NATIONAL PARK

CITY           SKY/WX    TMP DP  RH WIND       PRES   REMARKS
LK YELLOWSTONE   N/A     77  41  27 VRB6      30.33R
W YELLOWSTONE  NOT AVBL

$$
WYZ002>013-054>058-071-098>099-302300-
NORTHERN WYOMING

CITY           SKY/WX    TMP DP  RH WIND       PRES   REMARKS
JACKSON        CLOUDY    79  46  31 W9        30.21S THUNDER
CODY           FAIR      79  54  41 SW14      30.08F
GREYBULL       FAIR      95  43  16 NW18G29   29.94F HX  91
WORLAND        FAIR      78  57  48 SW10      30.00R
SHERIDAN       FAIR      91  51  25 N23G29    29.97F
BUFFALO        PTSUNNY   76  61  59 W10       30.07F
GILLETTE       FAIR      89  53  29 NW22      29.99F
HULETT         FAIR      84  54  34 N9        29.99S
NEWCASTLE      FAIR      86  50  28 MISG      29.98F

$$
WYZ014>020-022>026-101>103-302300-
CENTRAL WYOMING

CITY           SKY/WX    TMP DP  RH WIND       PRES   REMARKS
BIG PINEY      FAIR      88  39  17 N18G30    30.23S
PINEDALE       FAIR      86  43  22 NW16G35   30.24F
DUBOIS         FAIR      81  41  24 N14G25    30.23S
LANDER         FAIR      85  54  34 NE9       30.07F
RIVERTON       FAIR      82  54  37 VRB3      30.08F
CASPER         FAIR      90  46  21 NE14      30.06F
DOUGLAS        FAIR      91  48  22 N14       30.04F

$$
WYZ021-027>030-104>119-302300-
SOUTHERN WYOMING

CITY           SKY/WX    TMP DP  RH WIND       PRES   REMARKS
EVANSTON       FAIR      89  41  18 NW20G29   30.25S
KEMMERER       FAIR      88  39  18 W16G28    30.26S
FORT BRIDGER   CLEAR     84  45  24 SW8       30.27S
ROCK SPRINGS   FAIR      86  49  27 SW7       30.17F
DIXON          FAIR      90  38  16 CALM      30.18F
RAWLINS        FAIR      85  45  24 NE21      30.16F
SARATOGA       FAIR      90  39  17 W14G21    30.19F
LARAMIE        FAIR      71  48  43 SW3       30.23F
CHEYENNE       FAIR      86  46  24 CALM      30.13F
TORRINGTON     FAIR      92  53  26 SW6       29.94F
PINE BLUFFS    MOCLDY    84  54  34 S5        30.06S

$$


USA.gov is the U.S. government's official web portal to all federal, state and local government web resources and services.